Temp
70 72 73 73 73 73 73 72 72 72 73 73 73 72 72 72 72 72 72 71 71 72 72 72 72 72 72 72 74 74 74 74 74 74 75 76 76 77 76 76 77 77 76
72 72 72 73 73 73 72 72 72 72 72 73 72 72 71 72 72 72 71 71 71 72 72 72 72 72 72 72 73 73 74 74 74 75 76 75 75 76 75 75 75 75 75
70 72 73 72 72 72 72 72 72 72 72 72 72 72 71 71 71 71 70 70 70 71 71 71 72 72 73 73 72 72 73 73 74 75 76 73 73 74 75 74 74 75 75
72 72 74 72 72 72 72 72 72 72 71 71 72 71 71 71 71 70 69 69 70 70 71 71 71 72 71 72 72 72 72 73 74 75 75 75 74 73 73 73 73 74 74
72 74 72 71 71 71 71 71 71 70 71 71 71 71 70 70 70 69 68 69 69 70 70 70 70 70 70 70 70 70 71 71 72 76 71 71 71 72 72 72 72 72 72
73 72 71 70 71 71 71 70 70 70 70 70 70 70 70 70 69 68 68 68 68 69 69 69 69 69 69 68 68 68 69 70 70 75 70 70 69 72 71 71 71 71 71
72 71 71 70 70 70 70 70 70 70 69 69 69 69 68 68 68 67 67 67 67 68 68 68 68 68 68 67 67 68 68 69 72 72 69 67 67 71 71 70 70 70 70
72 70 71 71 70 70 70 70 69 68 68 68 68 68 68 67 67 67 67 67 67 67 67 67 67 67 66 66 67 67 67 68 72 73 69 66 69 70 70 70 69 69 69
72 70 70 70 70 69 68 68 69 68 68 68 67 68 67 67 67 67 67 67 67 67 67 67 66 66 66 66 66 66 67 68 67 71 71 65 70 70 70 69 69 68 68
69 68 69 69 70 69 67 68 68 67 67 67 67 67 67 67 67 67 67 66 66 66 66 66 66 66 66 65 66 66 67 67 68 69 65 64 69 69 69 68 68 68 68
71 71 69 70 69 69 69 68 67 68 67 67 66 67 66 65 65 65 67 66 66 66 65 65 65 65 65 65 67 67 67 63 67 66 62 67 68 69 68 68 67 68 67
69 70 70 70 69 70 74 67 67 68 67 66 67 64 64 65 65 70 67 66 66 66 65 65 65 65 65 62 61 66 61 65 65 64 60 67 67 68 68 67 67 67 67
71 70 72 70 70 70 71 70 70 70 69 68 68 66 66 67 65 64 62 62 60 64 62 63 62 61 64 63 63 62 64 64 63 64 63 65 66 67 67 67 67 67 66
70 70 71 71 70 70 71 69 68 68 67 67 66 66 64 63 63 64 64 64 62 63 62 63 64 64 64 65 65 64 64 63 63 61 59 64 65 65 66 66 66 66 66
71 71 70 71 70 69 67 67 65 63 66 66 66 65 65 63 63 65 64 65 65 65 64 63 63 63 63 64 64 65 65 64 64 61 56 64 64 64 65 65 65 65 65
70 70 69 69 68 68 66 66 66 66 67 66 65 66 65 63 63 63 64 65 64 64 64 63 63 63 61 63 62 64 64 63 63 63 60 56 63 64 64 65 65 65 65
74 74 70 69 68 65 67 65 65 67 65 65 66 66 66 65 64 63 63 64 64 64 63 65 63 62 61 65 63 62 62 63 63 62 61 59 58 62 63 64 64 64 64
76 72 71 72 69 67 65 62 66 65 61 66 66 65 65 66 65 62 63 62 63 63 62 61 61 61 61 62 61 62 63 63 62 61 61 61 59 61 61 63 64 64 64
75 73 72 69 69 68 66 65 63 65 67 68 68 68 67 66 66 62 63 61 63 61 60 60 58 58 58 58 60 60 61 61 62 66 63 61 60 60 58 61 62 63 63
76 74 74 72 68 67 66 66 67 67 68 69 69 68 68 67 65 64 62 62 62 62 59 58 56 56 56 56 60 61 58 59 57 60 58 65 60 60 59 57 55 57 61
74 73 72 71 70 69 67 66 66 65 66 67 68 68 67 67 66 63 59 59 60 57 59 58 57 56 55 56 53 53 53 54 55 55 58 57 59 61 59 58 57 56 58
72 72 72 71 69 69 69 67 65 65 66 66 67 66 66 65 63 63 59 58 58 57 56 56 56 55 54 55 52 51 47 52 56 58 59 58 56 58 62 60 59 59 58
70 69 70 69 68 67 66 65 63 63 62 62 63 63 63 62 61 60 59 57 57 57 54 55 56 54 52 54 54 50 45 44 49 56 56 58 57 55 56 60 59 59 58
69 68 68 67 67 67 65 63 59 59 58 59 59 60 59 59 59 59 57 56 55 56 54 54 57 53 53 52 52 54 53 50 45 44 53 57 58 57 54 58 57 58 59
70 67 65 65 66 64 62 61 59 55 55 56 57 55 54 56 57 57 54 51 52 53 52 51 51 50 51 50 50 49 50 50 51 47 44 48 55 57 55 56 55 55 58
69 65 63 63 64 63 60 58 53 50 50 50 51 51 50 51 52 53 52 50 49 49 49 49 50 48 47 48 49 49 49 46 46 47 46 47 47 52 54 54 54 54 55
MSLP
1017.40 1017.76 1017.94 1018.04 1018.17 1018.41 1018.55 1018.65 1018.73 1018.87 1018.92 1018.99 1019.16 1019.42 1019.50 1019.41 1019.39 1019.33 1019.57 1019.66 1019.52 1019.39 1019.40 1019.16 1019.10 1019.04 1018.97 1018.85 1018.63 1018.48 1018.53 1018.48 1018.39 1018.34 1018.31 1018.18 1018.14 1018.10 1018.04 1017.86 1017.63 1017.85 1017.97
1017.54 1018.10 1018.23 1018.29 1018.32 1018.65 1018.86 1019.02 1019.15 1019.25 1019.38 1019.43 1019.60 1019.55 1019.87 1019.69 1019.71 1019.53 1019.82 1019.91 1019.68 1019.65 1019.59 1019.36 1019.33 1019.15 1019.16 1019.02 1018.74 1018.66 1018.75 1018.70 1018.62 1018.55 1018.55 1018.72 1018.68 1018.62 1018.56 1018.47 1018.38 1018.41 1018.33
1017.92 1018.30 1018.54 1018.66 1018.70 1018.93 1019.14 1019.31 1019.39 1019.59 1019.75 1019.83 1019.88 1019.92 1020.10 1019.96 1020.02 1019.99 1020.10 1020.03 1020.00 1019.93 1019.62 1019.69 1019.61 1019.36 1019.32 1019.19 1019.03 1019.02 1019.02 1018.90 1018.75 1018.78 1018.80 1019.05 1019.26 1019.12 1019.04 1019.06 1018.89 1018.82 1018.73
1018.11 1018.42 1018.68 1019.05 1019.09 1019.35 1019.59 1019.72 1019.86 1019.97 1020.15 1020.20 1020.24 1020.29 1020.33 1020.21 1020.16 1020.35 1020.48 1020.17 1020.18 1020.18 1019.76 1019.95 1019.83 1019.56 1019.60 1019.46 1019.39 1019.28 1019.26 1019.10 1019.13 1019.07 1019.17 1019.40 1019.57 1019.80 1019.63 1019.55 1019.50 1019.35 1019.18
1018.38 1018.60 1019.24 1019.44 1019.51 1019.62 1019.94 1020.08 1020.22 1020.40 1020.45 1020.50 1020.57 1020.61 1020.54 1020.54 1020.38 1020.76 1020.71 1020.48 1020.25 1020.38 1020.07 1020.09 1020.09 1019.94 1019.82 1019.83 1019.87 1019.86 1019.67 1019.35 1019.57 1019.38 1019.64 1019.96 1020.21 1020.34 1020.21 1020.06 1019.98 1019.89 1019.77
1018.50 1019.04 1019.56 1019.77 1019.84 1019.93 1020.18 1020.36 1020.56 1020.75 1020.84 1020.89 1020.99 1020.95 1020.90 1020.79 1020.74 1020.97 1021.01 1020.74 1020.63 1020.72 1020.35 1020.36 1020.43 1020.30 1020.36 1020.32 1020.40 1020.22 1020.02 1019.62 1019.44 1019.54 1019.77 1020.36 1020.85 1020.71 1020.62 1020.56 1020.44 1020.32 1020.22
1018.80 1019.30 1019.75 1020.05 1020.20 1020.25 1020.40 1020.57 1020.68 1020.96 1021.19 1021.25 1021.23 1021.23 1021.20 1021.21 1021.07 1021.22 1021.16 1021.08 1021.03 1021.01 1020.72 1020.66 1020.69 1020.64 1020.69 1020.78 1020.52 1020.37 1020.17 1019.84 1019.22 1019.53 1020.16 1020.79 1021.19 1021.21 1021.14 1020.99 1020.88 1020.76 1020.65
1018.87 1019.48 1019.77 1020.15 1020.34 1020.52 1020.68 1020.82 1020.91 1021.17 1021.27 1021.46 1021.44 1021.37 1021.39 1021.47 1021.40 1021.35 1021.35 1021.32 1021.38 1021.23 1021.03 1020.91 1020.94 1020.95 1020.86 1020.86 1020.53 1020.44 1020.17 1019.77 1019.45 1019.53 1020.56 1021.18 1021.42 1021.51 1021.37 1021.23 1021.29 1021.18 1020.99
1018.93 1019.35 1019.71 1020.05 1020.41 1020.71 1020.88 1020.98 1021.09 1021.28 1021.36 1021.46 1021.62 1021.54 1021.61 1021.55 1021.54 1021.47 1021.38 1021.43 1021.55 1021.41 1021.20 1021.23 1021.22 1021.16 1021.13 1021.06 1020.80 1020.56 1020.25 1020.03 1019.75 1019.90 1020.83 1021.43 1021.46 1021.59 1021.65 1021.55 1021.54 1021.50 1021.35
1019.08 1019.50 1019.79 1020.01 1020.32 1020.42 1020.79 1020.87 1020.99 1021.28 1021.40 1021.44 1021.53 1021.66 1021.72 1021.66 1021.56 1021.49 1021.48 1021.47 1021.53 1021.48 1021.40 1021.45 1021.41 1021.40 1021.36 1021.16 1021.07 1020.75 1020.50 1020.38 1019.98 1020.44 1021.21 1021.52 1021.55 1021.76 1021.86 1021.82 1021.80 1021.76 1021.63
1019.06 1019.33 1019.61 1019.78 1019.99 1020.15 1020.47 1020.72 1020.89 1021.01 1021.10 1021.25 1021.39 1021.47 1021.53 1021.53 1021.33 1021.39 1021.44 1021.53 1021.65 1021.66 1021.56 1021.50 1021.44 1021.45 1021.38 1021.19 1020.92 1020.80 1020.72 1020.61 1020.13 1020.91 1021.40 1021.52 1021.60 1021.90 1022.05 1022.08 1022.03 1021.99 1021.84
1018.96 1019.26 1019.45 1019.67 1019.85 1019.77 1019.69 1020.06 1020.15 1020.47 1020.53 1020.67 1020.56 1020.97 1021.06 1020.91 1020.83 1021.07 1021.43 1021.57 1021.62 1021.66 1021.63 1021.52 1021.39 1021.45 1021.42 1021.18 1020.85 1020.67 1020.81 1020.41 1020.35 1020.92 1021.52 1021.64 1021.85 1021.94 1022.08 1022.14 1022.13 1022.02 1021.98
1018.68 1019.03 1019.42 1019.59 1019.68 1019.71 1019.66 1019.48 1019.35 1019.55 1019.58 1019.84 1020.04 1020.48 1020.38 1020.36 1020.56 1020.75 1021.12 1021.33 1021.41 1021.39 1021.37 1021.30 1021.14 1021.14 1020.88 1020.70 1020.56 1020.67 1020.56 1020.51 1020.45 1020.81 1021.42 1021.68 1021.95 1022.06 1022.11 1022.13 1022.16 1022.15 1022.08
1018.68 1018.90 1019.22 1019.39 1019.61 1019.66 1019.68 1019.85 1019.78 1019.72 1019.88 1019.84 1020.04 1020.15 1020.46 1020.55 1020.59 1020.39 1020.38 1020.68 1020.77 1020.66 1020.66 1020.76 1020.49 1020.40 1020.55 1020.70 1020.68 1020.69 1020.71 1020.65 1020.48 1021.11 1021.33 1021.52 1021.80 1022.07 1022.12 1022.11 1022.08 1022.17 1022.18
1018.63 1018.85 1019.08 1019.34 1019.52 1019.65 1019.98 1019.98 1020.09 1020.24 1020.01 1019.90 1019.95 1020.05 1020.33 1020.48 1020.49 1020.12 1020.08 1019.91 1019.94 1019.85 1019.84 1020.03 1020.08 1020.30 1020.53 1020.57 1020.59 1020.67 1020.64 1020.63 1020.64 1020.80 1021.39 1021.43 1021.59 1021.81 1021.95 1022.00 1021.99 1022.01 1022.07
1018.57 1018.80 1019.11 1019.44 1019.62 1019.91 1020.05 1019.95 1019.83 1019.86 1019.67 1019.54 1019.76 1019.79 1019.90 1020.17 1020.31 1020.14 1020.02 1019.86 1019.76 1019.62 1019.57 1019.67 1019.86 1019.99 1020.20 1020.27 1020.41 1020.45 1020.52 1020.53 1020.56 1020.70 1021.17 1021.47 1021.48 1021.52 1021.69 1021.77 1021.86 1021.89 1021.93
1017.63 1018.12 1018.71 1019.27 1019.56 1019.98 1019.82 1019.91 1019.81 1019.47 1019.77 1019.57 1019.32 1019.33 1019.37 1019.61 1019.74 1019.76 1019.79 1019.69 1019.63 1019.53 1019.56 1019.39 1019.31 1019.53 1019.95 1019.90 1020.13 1020.06 1020.27 1020.38 1020.52 1020.52 1020.72 1021.07 1021.26 1021.36 1021.47 1021.57 1021.68 1021.73 1021.88
1017.33 1018.15 1018.57 1018.95 1019.26 1019.53 1019.87 1020.10 1019.70 1019.38 1019.59 1019.32 1018.87 1018.83 1018.81 1018.81 1018.91 1019.32 1019.47 1019.47 1019.38 1019.24 1019.22 1019.33 1019.57 1019.43 1019.65 1019.74 1019.79 1019.73 1019.68 1019.82 1019.96 1020.10 1020.32 1020.57 1020.79 1021.12 1021.26 1021.33 1021.48 1021.48 1021.61
1017.50 1018.14 1018.23 1018.56 1018.75 1018.97 1019.14 1019.30 1019.28 1018.85 1018.41 1018.24 1018.05 1017.87 1017.92 1018.00 1018.17 1018.59 1018.79 1018.62 1018.88 1019.02 1019.10 1019.21 1019.37 1019.39 1019.66 1019.56 1019.40 1019.51 1019.60 1019.64 1019.57 1019.60 1019.73 1020.01 1020.23 1020.42 1020.97 1021.08 1021.27 1021.33 1021.38
1017.42 1017.73 1017.90 1017.94 1018.17 1018.38 1018.45 1018.45 1018.28 1018.07 1017.63 1017.45 1017.28 1017.15 1017.10 1017.03 1017.23 1017.66 1017.88 1017.90 1018.05 1018.34 1018.42 1018.65 1018.95 1019.03 1019.39 1019.74 1019.46 1019.36 1019.32 1019.32 1019.44 1019.32 1019.60 1019.41 1019.58 1019.81 1020.06 1020.69 1020.97 1021.10 1021.03
1017.34 1017.54 1017.69 1017.68 1017.68 1017.72 1017.71 1017.69 1017.45 1017.41 1017.01 1016.89 1016.70 1016.55 1016.69 1016.76 1016.88 1017.01 1017.72 1017.53 1018.38 1018.24 1018.44 1018.30 1018.73 1018.77 1018.88 1019.12 1019.62 1019.57 1019.41 1019.29 1019.16 1019.30 1019.25 1019.21 1019.04 1019.09 1019.36 1019.67 1020.09 1020.36 1020.32
1017.19 1017.14 1017.27 1017.51 1017.66 1017.77 1017.75 1017.77 1017.71 1017.53 1017.30 1017.09 1016.88 1016.74 1016.64 1016.62 1016.61 1016.89 1017.02 1017.48 1017.40 1017.64 1018.13 1018.02 1018.53 1018.61 1018.52 1018.59 1019.02 1019.37 1019.39 1019.12 1018.74 1018.52 1018.80 1018.82 1018.97 1018.71 1018.64 1018.87 1019.21 1019.51 1019.79
1017.15 1017.33 1017.55 1017.80 1017.97 1018.12 1018.14 1017.98 1017.84 1017.67 1017.47 1017.35 1017.22 1017.15 1016.98 1017.06 1017.23 1017.16 1017.11 1017.16 1017.29 1017.28 1017.46 1017.62 1017.46 1018.25 1018.17 1018.24 1018.33 1018.97 1019.11 1018.74 1018.40 1018.11 1018.20 1018.27 1018.31 1018.41 1018.40 1018.24 1018.60 1018.85 1019.15
1017.31 1017.52 1017.91 1018.18 1018.38 1018.37 1018.30 1018.26 1018.33 1018.23 1018.02 1017.89 1017.92 1017.87 1017.77 1017.58 1017.52 1017.44 1017.35 1017.14 1017.00 1017.16 1017.20 1017.28 1017.22 1017.48 1017.45 1017.56 1017.51 1017.65 1017.97 1018.20 1018.67 1018.63 1018.21 1017.74 1017.78 1017.94 1017.93 1017.84 1018.08 1018.35 1018.61
1017.47 1017.89 1018.22 1018.53 1018.64 1018.69 1018.80 1018.94 1019.04 1019.14 1019.06 1018.63 1018.39 1018.36 1018.27 1017.99 1017.84 1017.67 1017.70 1017.90 1017.58 1017.20 1017.23 1017.26 1017.36 1017.44 1017.48 1017.52 1017.40 1017.31 1017.48 1017.57 1017.93 1018.25 1018.44 1018.09 1017.47 1017.39 1017.46 1017.53 1017.63 1018.02 1018.11
1017.98 1018.45 1018.75 1018.92 1019.02 1019.09 1019.35 1019.64 1020.09 1020.17 1020.00 1019.59 1019.37 1019.20 1019.15 1019.05 1018.75 1018.48 1018.34 1018.17 1018.14 1017.97 1017.96 1017.85 1017.70 1017.57 1017.64 1017.54 1017.46 1017.45 1017.27 1017.20 1017.49 1017.59 1017.84 1018.16 1017.89 1016.82 1016.88 1017.05 1017.38 1017.59 1017.77
Wind_Speed
10 10 11 14 16 16 15 16 15 15 15 15 14 12 11 12 12 14 14 13 13 12 11 12 11 11 9 6 7 11 12 11 12 16 18 16 17 17 18 18 14 12 12
12 10 12 14 17 15 15 15 15 14 13 13 11 12 10 11 10 13 13 12 13 12 12 12 12 11 9 6 7 12 10 7 8 10 17 20 18 18 19 19 16 12 12
11 10 12 13 15 14 14 13 13 12 11 10 9 10 9 9 11 12 11 12 12 11 12 13 13 12 10 8 9 10 7 7 8 13 14 10 12 19 19 18 17 14 14
9 8 12 13 15 15 13 13 12 11 9 9 8 8 9 8 10 11 10 11 11 11 12 13 13 12 13 9 10 9 6 4 4 14 9 10 12 18 18 18 18 18 17
9 10 11 13 13 15 12 12 12 10 8 8 6 7 8 7 9 10 9 10 11 10 11 12 13 11 13 13 10 9 9 11 11 10 12 12 9 14 17 17 16 16 16
10 12 11 12 13 14 13 12 11 9 8 6 7 7 7 6 10 8 9 10 10 9 11 11 12 11 11 12 9 8 11 14 14 10 12 14 9 14 16 16 16 16 15
11 11 11 11 11 11 10 10 9 6 6 5 5 6 7 6 6 8 8 9 8 8 10 10 10 10 9 8 8 10 11 13 9 12 12 11 7 13 14 15 15 15 15
11 10 10 11 11 10 9 8 8 8 6 4 4 4 5 4 4 5 6 7 6 7 8 9 9 9 8 8 9 10 12 13 11 12 13 8 12 12 13 14 14 14 15
10 7 8 9 10 10 8 8 6 6 3 4 3 2 2 2 2 3 5 6 5 6 8 8 7 7 7 7 8 10 12 14 8 9 13 6 13 12 12 12 13 13 13
11 8 7 8 7 8 8 10 8 5 4 2 4 1 2 4 5 5 5 5 4 5 6 6 5 4 3 3 3 6 9 13 5 10 8 5 13 11 10 10 11 11 12
5 8 8 7 5 6 8 8 9 8 8 6 5 6 6 6 7 9 7 6 3 2 2 1 1 2 2 3 3 4 6 4 1 7 5 12 11 9 9 9 8 9 10
6 4 5 6 5 4 4 10 9 9 8 8 8 8 6 8 5 6 7 7 5 4 3 5 7 7 7 3 3 5 3 3 3 7 4 11 8 6 6 7 7 7 8
7 6 6 4 4 3 0 2 2 4 3 5 3 6 5 1 3 4 5 4 4 9 5 6 6 5 6 2 3 3 3 3 3 6 7 11 7 4 3 4 5 5 4
6 4 7 6 4 2 3 4 6 5 4 1 5 6 2 1 4 3 2 7 7 5 8 7 5 4 2 1 2 1 2 4 3 4 6 11 8 3 1 1 2 3 4
3 3 2 1 2 1 1 2 2 3 3 3 2 5 4 3 4 3 4 4 3 4 4 2 4 4 5 4 3 4 3 3 2 1 3 10 9 6 4 2 1 1 2
3 5 3 3 2 2 4 5 3 4 5 4 4 4 7 5 4 4 4 4 4 4 4 4 5 4 5 4 6 5 4 4 4 3 3 4 9 10 8 6 4 2 2
7 2 5 0 2 5 5 4 4 4 5 5 4 5 6 7 7 6 5 4 4 3 4 4 3 2 3 3 6 5 6 6 4 4 3 4 6 11 11 10 9 6 4
8 5 6 2 4 1 3 5 5 4 4 9 4 5 7 8 8 6 6 5 5 4 3 4 4 3 4 5 3 3 4 6 7 7 5 4 3 6 10 13 12 10 8
9 3 3 7 5 5 5 6 8 11 7 6 8 7 10 10 11 7 7 4 5 4 5 4 5 3 3 4 4 4 4 3 3 3 6 7 7 3 5 13 13 12 11
3 2 3 2 8 8 6 7 8 8 8 8 7 4 8 7 11 10 8 7 7 8 7 6 6 4 5 5 5 5 4 3 4 4 4 5 6 7 6 7 6 6 14
3 2 5 5 5 4 4 5 5 4 3 4 5 8 6 3 5 2 5 4 10 5 10 5 6 8 6 6 6 5 5 5 6 4 5 4 6 7 8 7 5 5 7
4 4 5 7 8 7 7 7 4 5 6 6 6 6 6 5 4 5 6 7 10 7 10 8 11 9 6 6 6 4 7 8 10 11 9 7 7 4 6 8 7 7 5
7 7 7 7 7 7 7 5 5 6 6 5 7 8 8 8 11 11 7 4 5 4 3 5 4 8 9 9 10 6 2 4 2 5 11 10 9 5 5 6 8 7 6
4 7 8 8 9 8 8 7 7 6 7 4 6 8 9 10 10 7 7 6 5 4 5 6 6 5 5 7 5 9 10 5 3 2 6 12 10 8 7 5 5 6 6
8 8 7 8 8 8 11 12 9 9 7 6 7 11 11 10 10 11 9 11 11 6 4 6 6 6 5 5 5 3 6 8 11 9 6 6 9 8 5 5 5 4 6
9 8 8 8 10 9 11 12 14 12 10 8 8 8 8 8 8 11 13 10 9 8 9 9 8 6 5 5 6 7 6 5 6 7 8 10 9 4 5 5 6 5 4
Wind_Direction
95 103 94 90 85 75 72 72 71 68 72 72 70 66 68 69 73 72 64 56 53 55 53 51 43 36 35 53 66 76 77 73 82 76 67 64 58 53 47 41 62 67 66
107 102 95 92 90 83 77 75 75 71 69 74 75 75 70 68 71 74 63 54 53 53 52 49 44 39 48 69 73 69 72 60 89 85 73 59 60 59 54 50 50 65 63
115 123 99 94 91 86 85 80 76 74 73 75 77 75 75 74 72 71 67 58 53 51 60 50 45 46 67 89 70 69 61 34 57 79 85 71 52 55 61 55 53 57 61
114 117 111 103 98 92 88 82 78 78 74 73 76 79 79 75 76 75 67 64 55 50 63 56 51 57 47 67 58 47 36 17 44 86 58 65 59 47 49 51 51 48 53
115 109 109 104 100 97 90 88 78 69 72 74 68 67 68 73 74 75 65 61 59 53 59 59 57 64 44 45 48 17 2 336 347 82 72 58 52 51 52 50 47 48 45
115 100 110 108 106 105 101 94 87 65 69 61 59 60 59 70 72 71 60 57 55 53 60 59 61 69 57 47 24 6 358 340 331 107 81 65 44 49 52 52 48 46 46
106 114 118 110 107 104 100 98 90 86 68 59 67 65 59 42 58 61 60 59 56 56 61 63 64 73 65 40 17 5 354 341 314 108 90 79 62 54 54 52 49 46 42
119 121 133 122 116 107 102 105 100 86 107 74 65 66 67 58 56 65 60 65 64 62 67 67 65 68 63 37 17 1 351 340 342 101 90 83 67 55 50 50 48 47 44
122 134 133 136 127 119 122 116 104 98 79 80 79 92 86 92 103 104 90 88 77 73 77 77 74 67 61 42 16 352 346 332 328 89 91 83 72 56 47 47 47 44 43
139 136 145 140 155 156 158 147 144 147 147 158 147 203 208 206 189 164 142 113 102 91 86 87 79 87 89 79 12 334 328 324 331 76 88 86 73 60 50 45 46 44 42
100 135 159 153 166 172 155 163 158 175 177 183 194 216 232 234 195 169 128 132 135 121 114 109 240 242 221 218 194 262 294 289 232 97 89 85 78 63 54 50 45 44 40
132 124 106 122 153 218 216 171 180 185 188 193 196 169 209 239 108 130 144 167 184 202 219 226 249 247 247 225 221 242 254 356 318 103 106 98 86 72 57 49 44 42 41
156 165 136 152 150 247 278 306 220 173 186 193 179 191 224 188 218 182 161 188 197 212 213 210 227 225 237 298 68 26 3 274 254 100 130 121 113 93 61 51 41 35 39
131 127 162 161 170 171 321 13 355 7 355 220 192 174 250 242 258 239 201 200 201 189 218 202 212 126 115 207 312 177 282 306 23 103 142 136 138 146 172 40 37 30 17
161 144 204 190 184 128 313 341 355 316 288 291 290 174 197 295 282 258 245 271 253 195 194 206 242 165 191 227 226 240 227 252 336 27 155 160 159 170 198 238 288 347 8
316 251 201 252 115 219 240 216 223 237 229 196 235 235 184 206 258 295 254 242 243 247 245 201 210 217 196 222 195 210 255 271 198 225 134 173 179 180 198 208 222 249 270
224 146 143 190 195 226 259 297 292 273 353 301 234 240 218 193 213 229 267 275 257 259 300 271 221 230 262 260 224 197 198 219 244 220 196 170 188 196 199 203 205 206 238
75 91 79 100 180 237 295 266 281 285 222 247 233 218 225 214 207 227 240 242 246 258 249 233 245 237 224 217 240 238 224 201 214 206 180 213 189 198 204 208 208 205 209
93 75 210 156 188 163 202 226 237 244 240 244 241 225 215 214 210 202 243 232 263 243 238 245 248 191 276 252 223 238 250 247 264 254 200 197 209 212 187 207 210 211 214
354 98 287 228 180 184 206 224 235 245 233 234 239 250 260 219 200 207 222 230 227 241 241 230 230 209 216 268 260 251 221 227 241 229 264 236 191 196 202 161 198 214 218
301 305 287 292 267 248 233 231 252 265 259 253 247 255 292 240 268 203 225 248 281 295 273 272 289 247 241 229 248 258 265 255 235 248 240 250 228 196 187 193 185 204 200
284 286 355 356 360 350 343 344 326 316 323 320 302 286 267 238 253 251 248 256 238 232 224 233 235 254 245 231 230 245 258 257 243 228 228 224 234 235 201 186 190 208 200
5 31 9 0 359 348 330 325 331 330 326 329 328 331 326 358 1 347 347 347 329 307 290 262 255 264 245 241 222 205 264 250 317 225 224 226 222 216 233 200 191 197 211
341 51 31 13 352 331 349 343 337 317 304 326 340 338 341 343 335 319 311 305 302 302 291 288 288 272 293 257 228 221 228 175 179 305 265 225 224 224 207 214 202 200 201
20 35 32 11 340 357 5 3 2 1 340 334 337 345 339 333 332 338 12 2 346 322 308 317 315 315 308 293 280 251 241 241 223 220 249 304 223 215 203 195 184 206 202
23 32 19 355 351 13 11 5 14 9 359 359 351 344 356 338 337 337 351 344 349 341 338 328 314 305 291 314 309 300 239 226 217 210 219 242 273 212 200 189 185 197 210